Weather History for Cape Girardeau, MO

Change the Weather History Date:

Saturday, March 16, 2013

  Actual Average Record
Temperature  
Mean Temperature 55 °F 47 °F  
Max Temperature 67 °F 58 °F 81 °F (1982)
Min Temperature 43 °F 36 °F 20 °F (1969)
Degree Days  
Heating Degree Days 10 18  
Month to date heating degree days 373 326  
Since 1 July heating degree days 3612 3823  
Cooling Degree Days 0 0  
Month to date cooling degree days 0 0  
Year to date cooling degree days 0 0  
Growing Degree Days 4 (Base 50)    
Moisture  
Dew Point 44 °F    
Average Humidity 68    
Maximum Humidity 80    
Minimum Humidity 56    
Precipitation  
Precipitation 0.00 in 0.14 in 2.54 in (1963)
Month to date precipitation 0.36 2.09  
Year to date precipitation 6.98 8.97  
Sea Level Pressure  
Sea Level Pressure 29.86 in    
Wind  
Wind Speed 13 mph (NW)    
Max Wind Speed 23 mph    
Max Gust Speed 26 mph    
Visibility 9 miles    
Events      
T = Trace of Precipitation, MM = Missing Value Source: NWS Daily Summary

Daily Weather History Graph

Daily Weather History Graph

Search for Another Location

Airport:

Trip Planner

Search our weather history database for the weather conditions in past years. The results will help you decide how hot, cold, wet, or windy it might be!

Date:

Astronomy

Mar. 16, 2013 Rise Set
Actual Time 7:07 AM CDT 7:06 PM CDT
Civil Twilight 6:41 AM CDT 7:32 PM CDT
Nautical Twilight 6:11 AM CDT 8:03 PM CDT
Astronomical Twilight 5:40 AM CDT 8:33 PM CDT
Moon 9:43 AM CDT (3/16) No Moon Set
Length of Visible Light 12h 51m
Length of Day
11h 59m
Waxing Crescent, 23% of the Moon is Illuminated
Mar 16
Waxing Crescent
Mar 19
First Quarter
Mar 27
Full
Apr 2
Last Quarter
Apr 10
New

Hourly Weather History & Observations

Time (CDT) Temp. Windchill Dew Point Humidity Pressure Visibility Wind Dir Wind Speed Gust Speed Precip Events Conditions
12:53 AM 61.0 °F - 50.0 °F 67% 29.74 in 10.0 mi SSW 16.1 mph 24.2 mph N/A   Clear
1:53 AM 61.0 °F - 48.9 °F 64% 29.73 in 10.0 mi SW 15.0 mph 23.0 mph N/A   Clear
2:53 AM 63.0 °F - 48.0 °F 58% 29.73 in 10.0 mi SW 16.1 mph 23.0 mph N/A   Clear
3:53 AM 61.0 °F - 48.0 °F 62% 29.73 in 10.0 mi SW 10.4 mph - N/A   Clear
4:53 AM 57.9 °F - 48.0 °F 70% 29.73 in 10.0 mi SSW 13.8 mph - N/A   Clear
5:53 AM 55.9 °F - 48.0 °F 75% 29.75 in 10.0 mi SSW 6.9 mph - N/A   Clear
6:53 AM 50.0 °F - 45.0 °F 83% 29.76 in 10.0 mi Calm Calm - N/A   Clear
7:53 AM 55.0 °F - 48.0 °F 77% 29.78 in 10.0 mi SSW 8.1 mph - N/A   Clear
8:53 AM 59.0 °F - 48.9 °F 69% 29.79 in 10.0 mi WSW 10.4 mph - N/A   Clear
9:53 AM 62.1 °F - 50.0 °F 65% 29.81 in 10.0 mi WSW 12.7 mph - N/A   Clear
10:53 AM 64.0 °F - 48.9 °F 58% 29.82 in 10.0 mi WSW 10.4 mph - N/A   Clear
11:53 AM 64.9 °F - 48.0 °F 54% 29.87 in 10.0 mi NNW 19.6 mph - N/A   Clear
12:53 PM 62.1 °F - 46.0 °F 56% 29.89 in 10.0 mi North 18.4 mph - N/A   Clear
1:53 PM 57.9 °F - 44.1 °F 60% 29.90 in 7.0 mi North 17.3 mph - N/A   Clear
2:53 PM 55.0 °F - 41.0 °F 59% 29.92 in 5.0 mi North 15.0 mph - N/A   Haze
3:53 PM 53.1 °F - 39.0 °F 59% 29.93 in 7.0 mi North 16.1 mph - N/A   Clear
4:53 PM 51.1 °F - 37.9 °F 61% 29.92 in 7.0 mi NNE 18.4 mph - N/A   Clear
5:53 PM 48.9 °F - 37.9 °F 66% 29.96 in 7.0 mi NNE 17.3 mph - N/A   Partly Cloudy
6:53 PM 46.9 °F - 37.9 °F 71% 29.94 in 7.0 mi NNE 13.8 mph - N/A   Scattered Clouds
7:53 PM 46.9 °F - 37.9 °F 71% 29.97 in 7.0 mi NNE 11.5 mph - N/A   Clear
8:53 PM 46.0 °F 40.6 °F 37.0 °F 71% 29.99 in 8.0 mi NNE 11.5 mph - N/A   Partly Cloudy
9:53 PM 45.0 °F 38.5 °F 37.0 °F 74% 29.98 in 9.0 mi NNE 13.8 mph - N/A   Overcast
10:53 PM 45.0 °F 38.5 °F 36.0 °F 71% 29.99 in 10.0 mi NNE 13.8 mph - N/A   Overcast
11:53 PM 44.1 °F 40.1 °F 36.0 °F 73% 29.98 in 9.0 mi NNE 6.9 mph - N/A   Overcast